SCP
-0 -0 -0 -0 -0 -0 -0 -0 -0 0 0 -0 -0 -0 -0 -0 -0 0 0 0 0 0 0 -0 0 0 -0 0 -0 0 0 0 -0 -0 0 -0 -0 -0 -0 -0 0 -0 -0 -0 -0
-0 -0 -0 0 -0 -0 0 0 0 0 0 0 0 0 0 0 -0 -0 0 0 0 0 0 -0 -0 0 -0 0 -0 -0 0 0 0 -0 0 -0 -0 -0 -0 0 0 -0 -0 -0 -0
-0 -0 -0 -0 -0 -0 -0 0 0 0 0 0 0 0 0 -0 0 0 0 0 0 0 -0 -0 -0 -0 0 -0 -0 -0 -0 -0 -0 0 -0 -0 -0 -0 0 -0 -0 -0 -0 -0 -0
-0 -0 -0 -0 -0 -0 -0 -0 0 0 0 0 0 0 0 -0 0 0 0 0 0 -0 -0 0 -0 -0 0 0 0 -0 -0 0 0 0 0 0 0 0 0 0 -0 -0 -0 -0 -0
-0 -0 -0 -0 -0 -0 -0 -0 -0 0 0 0 0 0 0 0 0 -0 0 0 0 0 0 0 -0 -0 -0 -0 -0 -0 -0 0 0 0 0 -0 0 0 0 -0 -0 -0 -0 -0 -0
0 0 0 0 0 -0 -0 0 0 0 0 0 0 0 0 0 0 0 0 0 0 -0 0 -0 -0 -0 -0 0 -0 -0 -0 -0 0 0 0 0 0 -0 -0 -0 -0 -0 -0 -0 0
0 0 0 0 0 0 0 0 0 0 0 0 0 -0 0 0 0 0 0 0 0 0 0 -0 0 -0 0 0 0 0 -0 0 0 0 0 0 0 0 -0 0 -0 -0 -0 -0 0
0 0 0 0 0 0 0 0 0 0 0 0 -0 -0 0 0 0 0 0 0 0 -0 -0 -0 -0 0 0 0 0 0 -0 -0 0 -0 0 -0 0 0 0 0 -0 -0 -0 -0 0
0 0 0 0 0 0 0 0 -0 0 0 -0 0 0 0 0 0 0 0 0 0 -0 -0 0 0 0 0 0 0 0 0 0 -0 -0 0 -0 0 0 -0 0 -0 -0 -0 -0 0
0 0 0 0 0 0 0 0 0 -0 0 -0 -0 0 0 0 0 0 0 0 0 0 0 0 0 0 0 -0 -0 0 0 0 0 -0 -0 0 0 0 0 0 -0 -0 -0 -0 -0
0 0 0 0 0 0 0 0 0 0 0 0 0 0 0 0 -0 0 0 -0 0 0 0 0 0 0 0 -0 -0 0 0 0 0 0 -0 0 0 0 0 0 0 -0 -0 -0 -0
0 0 0 0 0 0 0 0 0 0 0 -0 0 0 0 0 0 0 0 0 0 0 0 0 0 0 0 -0 0 0 0 0 0 -0 0 0 0 0 0 -0 0 -0 -0 -0 -0
0 0 0 0 0 -0 -0 0 0 0 0 0 0 0 0 0 0 0 0 -0 0 0 0 0 0 0 0 0 0 0 0 0 0 0 0 0 0 0 0 -0 0 -0 -0 -0 -0
0 0 0 0 0 -0 -0 0 -0 0 0 0 0 0 0 0 0 0 0 0 0 0 0 0 0 -0 0 0 0 0 0 0 0 0 0 0 0 0 0 -0 0 0 -0 -0 -0
0 0 0 0 -0 0 0 0 0 -0 0 0 0 0 0 0 0 0 0 0 0 0 0 0 0 0 0 0 0 0 0 0 0 0 0 0 0 0 0 0 0 -0 0 -0 -0
-0 -0 0 -0 0 -0 0 0 -0 0 0 0 0 -0 -0 0 0 0 0 0 0 0 0 0 0 0 0 0 0 0 0 0 0 0 0 0 0 0 0 0 0 0 0 0 -0
-0 -0 -0 -0 0 0 0 -0 0 0 0 0 0 0 -0 0 0 0 0 0 0 0 0 0 0 0 0 0 0 0 0 0 0 0 0 0 0 0 0 0 -0 0 0 0 -0
-0 -0 0 0 0 0 0 -0 0 0 0 0 0 0 0 0 -0 0 0 0 0 0 0 0 0 0 0 0 0 0 0 0 0 0 0 0 0 0 0 0 -0 -0 0 0 -0
-0 0 -0 0 0 -0 -0 0 0 0 0 0 0 0 0 0 0 0 0 0 0 0 0 0 0 0 0 0 0 0 0 0 0 0 0 0 0 -0 0 0 0 0 0 0 0
0 0 0 0 0 -0 -0 0 0 0 0 0 0 0 0 -0 0 0 0 0 0 0 0 0 0 0 0 0 0 0 0 0 0 0 0 0 0 0 0 0 0 0 0 0 0
0 0 0 -0 0 -0 -0 0 -0 -0 0 0 0 0 0 0 0 0 0 0 0 0 0 0 0 0 0 0 0 0 0 0 0 0 0 0 0 0 0 0 0 0 0 0 0
0 0 -0 0 0 0 -0 -0 -0 -0 -0 0 0 0 0 0 0 0 0 0 0 0 0 0 0 0 0 0 0 0 0 0 0 0 0 0 0 0 0 0 0 0 0 0 1
0 0 0 0 -0 0 0 0 0 -0 0 0 0 0 0 0 0 0 0 0 0 0 0 0 0 0 0 0 0 0 0 0 0 0 0 0 0 -0 0 0 0 0 0 0 1
0 -0 0 0 0 0 0 0 0 -0 -0 0 0 -0 -0 -0 0 0 0 0 0 0 0 0 0 0 0 0 0 0 0 0 0 0 0 0 0 0 0 0 0 0 0 0 0
-0 0 0 0 0 0 -0 -0 -0 0 -0 -0 0 0 0 0 0 0 0 0 0 0 0 0 0 0 0 0 0 0 0 0 0 0 0 0 0 0 -0 0 0 0 0 0 0
0 -0 -0 -0 0 0 0 0 0 -0 0 0 0 0 0 0 0 -0 -0 0 0 0 0 0 0 0 0 0 0 0 0 0 0 0 0 0 0 0 0 -0 -0 0 0 0 0
-0 -0 -0 -0 0 0 0 0 0 0 0 0 0 0 0 0 0 0 -0 -0 -0 0 0 0 0 0 0 0 0 0 0 0 0 0 0 0 0 0 0 0 0 -0 -0 0 0
Wind_Speed_500mb
39 40 41 42 40 37 33 31 29 27 29 29 29 23 12 14 14 17 21 18 37 20 35 23 32 40 35 35 42 26 12 15 7 12 7 46 34 38 38 34 38 34 39 64 70
42 43 43 44 44 42 38 33 29 28 28 31 26 19 18 22 19 27 23 35 31 29 43 35 42 44 45 39 39 19 14 12 17 24 19 23 42 46 26 37 29 30 51 71 75
45 45 46 46 47 44 40 37 31 26 29 29 26 20 21 21 11 10 37 37 34 37 39 33 35 42 42 42 41 45 31 24 35 24 46 38 36 44 24 35 45 52 65 79 76
46 47 48 47 47 46 42 36 31 30 28 30 23 26 18 9 5 11 15 18 31 41 41 36 40 46 37 38 43 39 47 41 2 23 17 17 29 10 38 28 8 63 66 80 77
44 46 49 48 47 45 40 35 33 31 30 28 23 19 6 10 11 8 11 14 28 46 43 37 49 43 35 38 43 37 40 18 14 20 16 35 18 11 31 51 31 59 71 74 74
45 45 46 47 47 44 37 33 32 30 26 19 19 10 9 20 3 5 4 18 26 48 44 41 40 39 35 42 37 39 41 38 7 23 22 27 21 38 45 48 55 65 75 74 71
47 45 44 44 44 42 36 32 29 23 17 12 3 7 18 19 7 7 6 14 33 46 45 39 38 37 38 26 38 33 38 23 29 22 20 19 11 17 61 55 64 63 71 73 68
48 46 45 42 41 36 31 31 21 17 6 7 4 8 16 4 8 7 10 15 24 41 40 31 36 35 41 31 39 23 34 32 34 33 31 34 21 26 36 14 60 63 66 77 72
47 46 44 42 37 31 27 23 7 6 3 12 4 10 17 5 3 6 13 21 27 33 35 30 34 36 28 32 29 28 30 40 42 48 36 36 21 21 36 69 65 61 68 71 71
49 46 42 39 35 26 21 10 7 4 4 11 21 19 21 8 1 4 11 19 28 32 29 30 31 25 27 29 30 33 34 37 37 36 45 31 12 28 30 28 71 66 68 69 70
46 44 39 36 28 17 13 11 8 8 23 25 3 18 4 5 5 4 12 21 27 35 29 43 25 31 41 41 41 41 38 38 35 35 40 27 25 10 30 27 40 63 66 71 80
49 47 37 32 22 5 11 15 8 12 19 33 23 17 7 10 10 10 12 24 30 28 34 27 39 39 38 39 40 42 40 39 28 35 38 41 35 35 19 39 62 65 68 72 76
50 47 37 27 16 3 7 10 14 14 15 30 27 26 12 14 24 18 14 29 29 33 36 41 28 44 42 39 37 37 37 34 37 29 24 25 39 33 32 45 48 67 68 70 78
51 45 33 19 10 16 10 9 14 11 11 28 23 12 14 16 17 14 9 21 24 35 38 43 45 38 41 44 38 38 33 36 39 35 24 33 29 52 42 42 11 72 68 70 75
49 42 28 18 18 16 10 15 12 7 10 23 21 10 6 26 17 23 11 20 30 28 22 35 44 43 43 35 43 36 34 29 34 36 36 36 30 34 59 36 33 71 66 71 76
45 38 15 4 7 7 14 14 7 12 11 13 13 16 21 20 10 2 11 21 19 23 36 32 45 35 40 36 34 37 29 37 33 30 31 42 38 31 30 41 29 34 63 45 78
43 24 7 14 9 13 16 16 12 18 19 17 16 13 19 23 15 11 16 21 19 20 24 29 38 34 27 33 41 34 30 23 26 26 35 39 36 31 39 52 67 38 46 119 84
32 14 18 7 13 18 15 19 21 22 12 19 3 6 14 18 16 8 11 19 24 24 24 23 29 40 29 34 28 39 35 28 36 27 36 41 40 36 47 38 92 105 92 43 84
22 5 9 7 17 9 20 17 6 21 35 18 3 11 20 18 7 7 17 27 19 11 18 22 33 10 46 35 37 41 39 43 46 40 34 34 36 47 42 42 29 42 59 76 38
23 3 3 11 8 8 17 23 12 29 25 19 16 23 24 16 23 13 18 1 9 9 17 20 29 33 18 10 17 27 29 29 29 43 46 36 40 28 40 36 29 27 37 49 54
13 14 6 17 5 16 13 7 16 25 21 20 24 25 27 24 28 11 20 11 1 2 6 25 23 38 19 19 27 27 32 28 29 25 37 31 32 34 25 44 39 40 54 67 101
17 6 19 8 16 18 15 14 9 20 15 5 8 12 15 23 30 32 29 19 27 16 10 18 17 25 38 27 27 33 40 37 26 35 29 28 35 44 33 28 33 37 38 76 75
19 9 21 8 7 12 14 14 16 25 23 15 13 19 23 18 14 18 23 27 10 7 12 18 14 19 33 31 36 26 34 36 37 36 44 31 29 44 30 30 21 30 36 22 86
17 4 17 22 19 20 12 17 14 24 22 23 18 15 14 15 11 10 19 15 25 15 18 13 20 27 26 19 28 23 31 36 37 30 31 41 45 41 26 39 48 50 45 23 28
16 12 10 11 18 18 27 23 27 19 23 14 4 12 15 13 25 23 10 10 17 30 14 13 29 33 40 45 36 36 36 42 48 46 42 36 46 44 36 33 43 56 60 62 38
19 14 18 12 5 14 11 17 13 18 12 15 17 22 22 19 21 31 28 24 15 23 25 24 29 34 41 43 42 45 41 40 40 35 43 41 49 47 35 26 47 47 55 69 77
17 12 8 8 21 10 12 10 10 19 17 17 25 18 20 19 32 33 35 39 28 26 22 29 21 24 39 37 41 46 39 39 37 38 31 35 47 41 37 30 47 57 59 67 82
Wind_Direction_500mb
357 354 350 348 346 342 339 338 330 321 319 327 330 329 315 331 284 240 226 216 213 206 185 189 192 194 201 218 220 235 255 276 286 322 181 143 150 165 152 150 183 191 151 159 157
353 351 349 346 345 341 336 330 329 318 317 319 325 320 315 307 290 243 233 221 227 207 182 188 191 195 212 207 228 221 267 298 344 296 152 264 152 155 162 173 199 171 137 152 158
349 347 346 344 343 340 335 328 324 317 315 317 316 307 315 308 300 223 222 238 225 198 185 192 195 198 214 218 216 229 245 262 203 279 167 189 154 160 145 188 160 142 147 154 158
345 343 341 342 341 340 334 331 324 313 313 313 311 306 305 247 333 201 246 246 208 189 191 220 206 207 220 226 231 238 248 260 36 3 127 126 350 37 121 249 314 146 154 154 160
341 339 338 339 339 339 335 331 323 315 311 310 305 298 268 229 250 324 334 220 202 191 204 213 208 212 223 235 234 236 254 288 260 188 108 140 140 90 193 172 137 143 155 159 161
338 336 335 336 337 338 335 331 324 320 313 312 299 280 199 248 338 283 247 228 200 192 200 213 211 218 230 247 245 242 239 257 304 241 171 164 171 190 156 150 144 155 158 165 168
333 333 333 333 334 336 333 331 325 322 315 314 257 195 261 279 312 279 241 210 201 196 199 214 215 228 234 264 271 271 273 260 221 244 203 258 218 214 152 172 148 158 163 163 171
331 331 331 330 331 331 332 328 322 332 318 168 180 310 281 286 252 258 211 203 196 194 202 211 219 240 245 253 264 268 250 254 234 197 213 201 225 237 127 237 151 160 170 162 177
332 331 330 327 329 326 331 330 314 346 24 188 230 276 256 3 269 237 210 198 189 194 215 222 216 241 241 257 255 248 240 229 257 190 204 205 214 128 121 210 158 165 173 167 182
332 332 331 327 328 325 331 314 299 262 244 211 255 263 226 205 32 248 210 192 194 196 205 225 221 228 234 230 231 239 218 245 224 242 202 206 147 143 182 255 154 170 177 171 180
329 328 328 324 324 329 344 313 286 219 210 248 159 251 184 200 250 239 192 197 191 198 210 208 212 216 224 228 243 268 284 235 249 233 190 190 136 99 304 275 230 167 179 178 175
328 327 328 320 317 294 331 318 4 323 291 233 237 255 250 248 221 170 195 191 191 205 213 203 228 229 226 236 232 255 265 278 247 242 215 139 150 154 190 252 240 171 180 183 178
330 329 326 316 309 188 324 306 311 314 264 249 215 233 200 218 241 143 214 223 221 221 219 229 222 219 236 233 241 239 250 261 271 260 238 230 152 165 222 237 286 176 180 187 183
332 331 326 309 293 303 247 323 324 294 269 164 183 219 214 236 233 196 253 286 229 249 224 230 241 237 216 235 235 243 238 257 275 278 231 221 254 178 188 220 320 293 178 187 187
334 332 325 294 290 306 321 316 305 238 267 151 122 131 179 216 103 191 229 257 259 246 249 236 235 235 246 221 236 246 254 242 246 269 274 258 222 257 166 180 166 231 184 185 191
335 333 333 46 297 299 322 303 276 235 230 129 129 180 194 202 193 153 236 221 290 280 273 261 267 224 245 243 253 240 246 261 261 239 248 248 256 246 206 174 159 233 245 226 191
337 339 312 253 307 302 309 279 231 250 141 141 174 177 211 164 185 243 221 206 230 216 239 244 259 267 266 251 217 236 216 236 235 234 242 234 240 244 268 163 168 167 229 251 187
342 7 52 224 307 301 294 256 261 284 78 83 63 113 255 204 210 185 271 255 233 269 290 256 220 223 211 237 242 211 221 227 226 232 239 233 248 237 250 240 175 176 188 233 183
333 337 307 302 306 285 265 245 302 9 18 27 273 236 262 196 246 260 246 272 283 192 270 287 267 358 211 201 226 246 219 240 261 254 249 251 227 230 243 242 182 151 170 180 263
347 285 104 344 314 271 256 265 23 33 7 353 307 317 319 275 174 231 255 109 254 43 358 301 308 286 175 260 231 250 282 240 227 252 265 262 259 242 207 221 197 155 145 178 215
323 234 58 343 287 245 250 28 21 31 27 349 347 324 322 313 313 306 284 71 59 13 294 299 281 275 277 191 240 236 257 257 277 262 247 257 259 271 227 204 209 183 168 164 198
284 315 355 354 257 256 43 19 340 7 2 298 295 295 296 318 317 320 324 323 32 356 286 290 289 266 263 260 192 256 272 251 243 245 269 264 250 263 10 200 207 228 228 193 177
300 38 20 342 320 352 55 53 57 10 12 5 333 2 337 323 322 290 302 299 36 303 354 318 261 261 266 266 257 237 250 253 267 241 251 247 246 261 292 349 208 206 223 248 166
297 325 63 50 33 358 5 40 39 65 26 357 328 334 313 297 270 283 305 342 334 280 23 328 279 279 268 268 346 296 261 253 271 248 249 248 260 273 355 18 1 2 353 307 229
356 51 5 16 26 56 30 19 41 9 359 17 59 39 339 320 330 290 281 327 293 288 238 263 268 272 281 292 296 287 286 287 233 253 254 253 246 259 54 357 322 320 340 337 307
7 358 64 28 326 64 82 47 27 13 11 343 353 339 318 316 305 305 303 294 278 284 301 251 253 270 276 282 281 278 260 262 278 258 252 261 271 278 335 355 308 306 327 330 315
46 37 327 10 47 41 49 29 359 8 312 327 352 334 316 345 326 305 292 290 267 257 245 258 266 273 266 262 269 259 254 259 261 263 272 263 267 286 305 312 299 306 316 319 322
Wind_Speed_850mb
39 40 41 42 40 37 33 31 29 27 29 29 29 23 12 14 14 17 21 18 37 20 35 23 32 40 35 35 42 26 12 15 7 12 7 46 34 38 38 34 38 34 39 64 70
42 43 43 44 44 42 38 33 29 28 28 31 26 19 18 22 19 27 23 35 31 29 43 35 42 44 45 39 39 19 14 12 17 24 19 23 42 46 26 37 29 30 51 71 75
45 45 46 46 47 44 40 37 31 26 29 29 26 20 21 21 11 10 37 37 34 37 39 33 35 42 42 42 41 45 31 24 35 24 46 38 36 44 24 35 45 52 65 79 76
46 47 48 47 47 46 42 36 31 30 28 30 23 26 18 9 5 11 15 18 31 41 41 36 40 46 37 38 43 39 47 41 2 23 17 17 29 10 38 28 8 63 66 80 77
44 46 49 48 47 45 40 35 33 31 30 28 23 19 6 10 11 8 11 14 28 46 43 37 49 43 35 38 43 37 40 18 14 20 16 35 18 11 31 51 31 59 71 74 74
45 45 46 47 47 44 37 33 32 30 26 19 19 10 9 20 3 5 4 18 26 48 44 41 40 39 35 42 37 39 41 38 7 23 22 27 21 38 45 48 55 65 75 74 71
47 45 44 44 44 42 36 32 29 23 17 12 3 7 18 19 7 7 6 14 33 46 45 39 38 37 38 26 38 33 38 23 29 22 20 19 11 17 61 55 64 63 71 73 68
48 46 45 42 41 36 31 31 21 17 6 7 4 8 16 4 8 7 10 15 24 41 40 31 36 35 41 31 39 23 34 32 34 33 31 34 21 26 36 14 60 63 66 77 72
47 46 44 42 37 31 27 23 7 6 3 12 4 10 17 5 3 6 13 21 27 33 35 30 34 36 28 32 29 28 30 40 42 48 36 36 21 21 36 69 65 61 68 71 71
49 46 42 39 35 26 21 10 7 4 4 11 21 19 21 8 1 4 11 19 28 32 29 30 31 25 27 29 30 33 34 37 37 36 45 31 12 28 30 28 71 66 68 69 70
46 44 39 36 28 17 13 11 8 8 23 25 3 18 4 5 5 4 12 21 27 35 29 43 25 31 41 41 41 41 38 38 35 35 40 27 25 10 30 27 40 63 66 71 80
49 47 37 32 22 5 11 15 8 12 19 33 23 17 7 10 10 10 12 24 30 28 34 27 39 39 38 39 40 42 40 39 28 35 38 41 35 35 19 39 62 65 68 72 76
50 47 37 27 16 3 7 10 14 14 15 30 27 26 12 14 24 18 14 29 29 33 36 41 28 44 42 39 37 37 37 34 37 29 24 25 39 33 32 45 48 67 68 70 78
51 45 33 19 10 16 10 9 14 11 11 28 23 12 14 16 17 14 9 21 24 35 38 43 45 38 41 44 38 38 33 36 39 35 24 33 29 52 42 42 11 72 68 70 75
49 42 28 18 18 16 10 15 12 7 10 23 21 10 6 26 17 23 11 20 30 28 22 35 44 43 43 35 43 36 34 29 34 36 36 36 30 34 59 36 33 71 66 71 76
45 38 15 4 7 7 14 14 7 12 11 13 13 16 21 20 10 2 11 21 19 23 36 32 45 35 40 36 34 37 29 37 33 30 31 42 38 31 30 41 29 34 63 45 78
43 24 7 14 9 13 16 16 12 18 19 17 16 13 19 23 15 11 16 21 19 20 24 29 38 34 27 33 41 34 30 23 26 26 35 39 36 31 39 52 67 38 46 119 84
32 14 18 7 13 18 15 19 21 22 12 19 3 6 14 18 16 8 11 19 24 24 24 23 29 40 29 34 28 39 35 28 36 27 36 41 40 36 47 38 92 105 92 43 84
22 5 9 7 17 9 20 17 6 21 35 18 3 11 20 18 7 7 17 27 19 11 18 22 33 10 46 35 37 41 39 43 46 40 34 34 36 47 42 42 29 42 59 76 38
23 3 3 11 8 8 17 23 12 29 25 19 16 23 24 16 23 13 18 1 9 9 17 20 29 33 18 10 17 27 29 29 29 43 46 36 40 28 40 36 29 27 37 49 54
13 14 6 17 5 16 13 7 16 25 21 20 24 25 27 24 28 11 20 11 1 2 6 25 23 38 19 19 27 27 32 28 29 25 37 31 32 34 25 44 39 40 54 67 101
17 6 19 8 16 18 15 14 9 20 15 5 8 12 15 23 30 32 29 19 27 16 10 18 17 25 38 27 27 33 40 37 26 35 29 28 35 44 33 28 33 37 38 76 75
19 9 21 8 7 12 14 14 16 25 23 15 13 19 23 18 14 18 23 27 10 7 12 18 14 19 33 31 36 26 34 36 37 36 44 31 29 44 30 30 21 30 36 22 86
17 4 17 22 19 20 12 17 14 24 22 23 18 15 14 15 11 10 19 15 25 15 18 13 20 27 26 19 28 23 31 36 37 30 31 41 45 41 26 39 48 50 45 23 28
16 12 10 11 18 18 27 23 27 19 23 14 4 12 15 13 25 23 10 10 17 30 14 13 29 33 40 45 36 36 36 42 48 46 42 36 46 44 36 33 43 56 60 62 38
19 14 18 12 5 14 11 17 13 18 12 15 17 22 22 19 21 31 28 24 15 23 25 24 29 34 41 43 42 45 41 40 40 35 43 41 49 47 35 26 47 47 55 69 77
17 12 8 8 21 10 12 10 10 19 17 17 25 18 20 19 32 33 35 39 28 26 22 29 21 24 39 37 41 46 39 39 37 38 31 35 47 41 37 30 47 57 59 67 82
Wind_Direction_850mb
357 354 350 348 346 342 339 338 330 321 319 327 330 329 315 331 284 240 226 216 213 206 185 189 192 194 201 218 220 235 255 276 286 322 181 143 150 165 152 150 183 191 151 159 157
353 351 349 346 345 341 336 330 329 318 317 319 325 320 315 307 290 243 233 221 227 207 182 188 191 195 212 207 228 221 267 298 344 296 152 264 152 155 162 173 199 171 137 152 158
349 347 346 344 343 340 335 328 324 317 315 317 316 307 315 308 300 223 222 238 225 198 185 192 195 198 214 218 216 229 245 262 203 279 167 189 154 160 145 188 160 142 147 154 158
345 343 341 342 341 340 334 331 324 313 313 313 311 306 305 247 333 201 246 246 208 189 191 220 206 207 220 226 231 238 248 260 36 3 127 126 350 37 121 249 314 146 154 154 160
341 339 338 339 339 339 335 331 323 315 311 310 305 298 268 229 250 324 334 220 202 191 204 213 208 212 223 235 234 236 254 288 260 188 108 140 140 90 193 172 137 143 155 159 161
338 336 335 336 337 338 335 331 324 320 313 312 299 280 199 248 338 283 247 228 200 192 200 213 211 218 230 247 245 242 239 257 304 241 171 164 171 190 156 150 144 155 158 165 168
333 333 333 333 334 336 333 331 325 322 315 314 257 195 261 279 312 279 241 210 201 196 199 214 215 228 234 264 271 271 273 260 221 244 203 258 218 214 152 172 148 158 163 163 171
331 331 331 330 331 331 332 328 322 332 318 168 180 310 281 286 252 258 211 203 196 194 202 211 219 240 245 253 264 268 250 254 234 197 213 201 225 237 127 237 151 160 170 162 177
332 331 330 327 329 326 331 330 314 346 24 188 230 276 256 3 269 237 210 198 189 194 215 222 216 241 241 257 255 248 240 229 257 190 204 205 214 128 121 210 158 165 173 167 182
332 332 331 327 328 325 331 314 299 262 244 211 255 263 226 205 32 248 210 192 194 196 205 225 221 228 234 230 231 239 218 245 224 242 202 206 147 143 182 255 154 170 177 171 180
329 328 328 324 324 329 344 313 286 219 210 248 159 251 184 200 250 239 192 197 191 198 210 208 212 216 224 228 243 268 284 235 249 233 190 190 136 99 304 275 230 167 179 178 175
328 327 328 320 317 294 331 318 4 323 291 233 237 255 250 248 221 170 195 191 191 205 213 203 228 229 226 236 232 255 265 278 247 242 215 139 150 154 190 252 240 171 180 183 178
330 329 326 316 309 188 324 306 311 314 264 249 215 233 200 218 241 143 214 223 221 221 219 229 222 219 236 233 241 239 250 261 271 260 238 230 152 165 222 237 286 176 180 187 183
332 331 326 309 293 303 247 323 324 294 269 164 183 219 214 236 233 196 253 286 229 249 224 230 241 237 216 235 235 243 238 257 275 278 231 221 254 178 188 220 320 293 178 187 187
334 332 325 294 290 306 321 316 305 238 267 151 122 131 179 216 103 191 229 257 259 246 249 236 235 235 246 221 236 246 254 242 246 269 274 258 222 257 166 180 166 231 184 185 191
335 333 333 46 297 299 322 303 276 235 230 129 129 180 194 202 193 153 236 221 290 280 273 261 267 224 245 243 253 240 246 261 261 239 248 248 256 246 206 174 159 233 245 226 191
337 339 312 253 307 302 309 279 231 250 141 141 174 177 211 164 185 243 221 206 230 216 239 244 259 267 266 251 217 236 216 236 235 234 242 234 240 244 268 163 168 167 229 251 187
342 7 52 224 307 301 294 256 261 284 78 83 63 113 255 204 210 185 271 255 233 269 290 256 220 223 211 237 242 211 221 227 226 232 239 233 248 237 250 240 175 176 188 233 183
333 337 307 302 306 285 265 245 302 9 18 27 273 236 262 196 246 260 246 272 283 192 270 287 267 358 211 201 226 246 219 240 261 254 249 251 227 230 243 242 182 151 170 180 263
347 285 104 344 314 271 256 265 23 33 7 353 307 317 319 275 174 231 255 109 254 43 358 301 308 286 175 260 231 250 282 240 227 252 265 262 259 242 207 221 197 155 145 178 215
323 234 58 343 287 245 250 28 21 31 27 349 347 324 322 313 313 306 284 71 59 13 294 299 281 275 277 191 240 236 257 257 277 262 247 257 259 271 227 204 209 183 168 164 198
284 315 355 354 257 256 43 19 340 7 2 298 295 295 296 318 317 320 324 323 32 356 286 290 289 266 263 260 192 256 272 251 243 245 269 264 250 263 10 200 207 228 228 193 177
300 38 20 342 320 352 55 53 57 10 12 5 333 2 337 323 322 290 302 299 36 303 354 318 261 261 266 266 257 237 250 253 267 241 251 247 246 261 292 349 208 206 223 248 166
297 325 63 50 33 358 5 40 39 65 26 357 328 334 313 297 270 283 305 342 334 280 23 328 279 279 268 268 346 296 261 253 271 248 249 248 260 273 355 18 1 2 353 307 229
356 51 5 16 26 56 30 19 41 9 359 17 59 39 339 320 330 290 281 327 293 288 238 263 268 272 281 292 296 287 286 287 233 253 254 253 246 259 54 357 322 320 340 337 307
7 358 64 28 326 64 82 47 27 13 11 343 353 339 318 316 305 305 303 294 278 284 301 251 253 270 276 282 281 278 260 262 278 258 252 261 271 278 335 355 308 306 327 330 315
46 37 327 10 47 41 49 29 359 8 312 327 352 334 316 345 326 305 292 290 267 257 245 258 266 273 266 262 269 259 254 259 261 263 272 263 267 286 305 312 299 306 316 319 322